| time (UTC) | temp F | wind direction | speed knots | gust knots | rain 1hr in | rain 24hr in | rain mn in | humidity % | barometer mb |
| 20260901013756 | 55 | 315 | 0.0 | 0.0 | 0.00 | 0.00 | 0.00 | 99 | 1018.4 |
| 20260901013252 | 55 | 313 | 0.0 | 0.0 | 0.00 | 0.00 | 0.00 | 99 | 1018.3 |
| 20260901012742 | 55 | 322 | 0.0 | 0.0 | 0.00 | 0.00 | 0.00 | 98 | 1018.3 |
| 20260901012242 | 55 | 322 | 0.0 | 0.0 | 0.00 | 0.00 | 0.00 | 98 | 1018.1 |
| 20260901011737 | 55 | 322 | 0.0 | 0.0 | 0.00 | 0.00 | 0.00 | 98 | 1017.9 |
| 20260901011232 | 55 | 322 | 0.0 | 0.0 | 0.00 | 0.00 | 0.00 | 98 | 1018.3 |
| 20260901010726 | 56 | 323 | 0.0 | 0.0 | 0.00 | 0.00 | 0.00 | 97 | 1018.1 |
| 20260901010221 | 56 | 324 | 0.0 | 0.0 | 0.00 | 0.00 | 0.00 | 96 | 1018.4 |
| 20260901005714 | 56 | 326 | 0.0 | 0.0 | 0.00 | 0.00 | 0.00 | 96 | 1018.4 |
| 20260901005209 | 56 | 339 | 0.0 | 0.0 | 0.00 | 0.00 | 0.00 | 96 | 1018.2 |
| 20260901004709 | 57 | 311 | 0.0 | 0.0 | 0.00 | 0.00 | 0.00 | 95 | 1018.4 |
| 20260901004203 | 57 | 314 | 0.0 | 0.0 | 0.00 | 0.00 | 0.00 | 94 | 1018.2 |
| 20260901003658 | 58 | 315 | 0.0 | 0.0 | 0.00 | 0.00 | 0.00 | 93 | 1018.3 |
| 20260901003157 | 58 | 314 | 0.0 | 0.0 | 0.00 | 0.00 | 0.00 | 92 | 1018.5 |
| 20260901002651 | 59 | 310 | 0.0 | 0.0 | 0.00 | 0.00 | 0.00 | 91 | 1018.3 |
| 20260901002146 | 60 | 282 | 0.0 | 0.0 | 0.00 | 0.00 | 0.00 | 90 | 1018.2 |
| 20260901001642 | 60 | 304 | 0.0 | 0.0 | 0.00 | 0.00 | 0.00 | 90 | 1018.2 |
| 20260901001137 | 59 | 251 | 0.9 | 0.9 | 0.00 | 0.00 | 0.00 | 90 | 1018.2 |
| 20260901000632 | 59 | 316 | 0.0 | 0.0 | 0.00 | 0.00 | 0.00 | 92 | 1018.2 |
| 20260901000130 | 59 | 305 | 0.0 | 0.0 | 0.00 | 0.00 | 0.00 | 92 | 1017.9 |
| 20260831235621 | 60 | 311 | 0.0 | 0.0 | 0.00 | 0.00 | 0.00 | 90 | 1018.0 |
| 20260831235117 | 60 | 310 | 0.0 | 0.0 | 0.00 | 0.00 | 0.00 | 90 | 1018.2 |
| 20260831234616 | 61 | 286 | 0.0 | 0.0 | 0.00 | 0.00 | 0.00 | 88 | 1018.0 |
| 20260831234112 | 62 | 303 | 0.0 | 0.0 | 0.00 | 0.00 | 0.00 | 87 | 1018.1 |
| 20260831233607 | 61 | 6 | 0.0 | 0.0 | 0.00 | 0.00 | 0.00 | 88 | 1018.2 |
| 20260831233102 | 62 | 342 | 0.0 | 0.0 | 0.00 | 0.00 | 0.00 | 87 | 1018.1 |
| 20260831232557 | 62 | 331 | 0.0 | 0.0 | 0.00 | 0.00 | 0.00 | 85 | 1018.1 |
| 20260831232053 | 63 | 341 | 0.0 | 0.0 | 0.00 | 0.00 | 0.00 | 84 | 1018.1 |
| 20260831231549 | 64 | 286 | 0.0 | 0.0 | 0.00 | 0.00 | 0.00 | 82 | 1018.2 |
| 20260831231044 | 64 | 262 | 0.0 | 0.0 | 0.00 | 0.00 | 0.00 | 81 | 1018.4 |
| 20260831230540 | 64 | 325 | 0.0 | 0.0 | 0.00 | 0.00 | 0.00 | 80 | 1018.2 |
| 20260831230039 | 65 | 161 | 0.0 | 0.0 | 0.00 | 0.00 | 0.00 | 78 | 1018.4 |
| 20260831225535 | 66 | 114 | 1.7 | 1.7 | 0.00 | 0.00 | 0.00 | 76 | 1018.1 |
| 20260831225030 | 67 | 320 | 0.0 | 0.0 | 0.00 | 0.00 | 0.00 | 74 | 1018.0 |
| 20260831224525 | 67 | 298 | 0.0 | 0.0 | 0.00 | 0.00 | 0.00 | 72 | 1018.2 |
| 20260831224021 | 67 | 315 | 0.0 | 0.0 | 0.00 | 0.00 | 0.00 | 71 | 1018.1 |
| 20260831223515 | 68 | 45 | 0.0 | 0.9 | 0.00 | 0.00 | 0.00 | 69 | 1018.3 |
| 20260831223012 | 68 | 65 | 0.9 | 0.9 | 0.00 | 0.00 | 0.00 | 68 | 1018.2 |
| 20260831222508 | 68 | 332 | 0.9 | 1.7 | 0.00 | 0.00 | 0.00 | 68 | 1018.3 |
| 20260831222007 | 69 | 251 | 0.9 | 0.9 | 0.00 | 0.00 | 0.00 | 68 | 1018.1 |
| 20260831221504 | 69 | 329 | 0.9 | 0.9 | 0.00 | 0.00 | 0.00 | 67 | 1018.3 |
| 20260831220958 | 70 | 88 | 0.0 | 0.0 | 0.00 | 0.00 | 0.00 | 66 | 1018.2 |
| 20260831220454 | 70 | 81 | 0.9 | 0.9 | 0.00 | 0.00 | 0.00 | 67 | 1018.2 |
| 20260831215949 | 71 | 315 | 0.0 | 0.9 | 0.00 | 0.00 | 0.00 | 64 | 1018.2 |
| 20260831215444 | 71 | 309 | 0.0 | 0.0 | 0.00 | 0.00 | 0.00 | 65 | 1018.0 |
| 20260831214940 | 71 | 9 | 1.7 | 2.6 | 0.00 | 0.00 | 0.00 | 65 | 1018.2 |
| 20260831214437 | 72 | 198 | 1.7 | 2.6 | 0.00 | 0.00 | 0.00 | 63 | 1018.2 |
| 20260831213933 | 72 | 261 | 1.7 | 2.6 | 0.00 | 0.00 | 0.00 | 61 | 1018.4 |
| 20260831213429 | 72 | 292 | 0.9 | 0.9 | 0.00 | 0.00 | 0.00 | 62 | 1018.2 |
| 20260831212929 | 73 | 341 | 0.9 | 0.9 | 0.00 | 0.00 | 0.00 | 63 | 1018.2 |
| 20260831212426 | 73 | 312 | 0.9 | 1.7 | 0.00 | 0.00 | 0.00 | 60 | 1018.1 |
| 20260831211925 | 74 | 204 | 3.5 | 3.5 | 0.00 | 0.00 | 0.00 | 58 | 1018.1 |
| 20260831211420 | 74 | 300 | 0.0 | 0.0 | 0.00 | 0.00 | 0.00 | 58 | 1018.3 |
| 20260831210914 | 75 | 336 | 0.9 | 0.9 | 0.00 | 0.00 | 0.00 | 56 | 1018.2 |
| 20260831210410 | 74 | 300 | 0.0 | 0.9 | 0.00 | 0.00 | 0.00 | 59 | 1018.3 |
| 20260831205905 | 73 | 161 | 1.7 | 1.7 | 0.00 | 0.00 | 0.00 | 59 | 1018.2 |
| 20260831205401 | 74 | 297 | 2.6 | 3.5 | 0.00 | 0.00 | 0.00 | 59 | 1018.3 |
| 20260831204855 | 74 | 45 | 0.9 | 0.9 | 0.00 | 0.00 | 0.00 | 59 | 1018.2 |
| 20260831204354 | 75 | 189 | 1.7 | 2.6 | 0.00 | 0.00 | 0.00 | 58 | 1018.4 |
| 20260831203854 | 75 | 271 | 0.0 | 0.9 | 0.00 | 0.00 | 0.00 | 59 | 1018.4 |
| 20260831203349 | 75 | 254 | 0.9 | 1.7 | 0.00 | 0.00 | 0.00 | 59 | 1018.6 |
| 20260831202847 | 74 | 324 | 0.0 | 0.0 | 0.00 | 0.00 | 0.00 | 63 | 1018.3 |
| 20260831202342 | 73 | 139 | 2.6 | 2.6 | 0.00 | 0.00 | 0.00 | 61 | 1018.4 |
| 20260831201836 | 74 | 306 | 1.7 | 2.6 | 0.00 | 0.00 | 0.00 | 60 | 1018.4 |
| 20260831201335 | 74 | 296 | 1.7 | 1.7 | 0.00 | 0.00 | 0.00 | 59 | 1018.5 |
| 20260831200831 | 75 | 213 | 1.7 | 2.6 | 0.00 | 0.00 | 0.00 | 59 | 1018.3 |
| 20260831200326 | 75 | 146 | 0.9 | 0.9 | 0.00 | 0.00 | 0.00 | 57 | 1018.2 |
| 20260831195821 | 75 | 243 | 0.9 | 0.9 | 0.00 | 0.00 | 0.00 | 55 | 1018.6 |
| 20260831195317 | 74 | 198 | 0.9 | 1.7 | 0.00 | 0.00 | 0.00 | 55 | 1018.4 |
| 20260831194813 | 75 | 187 | 1.7 | 1.7 | 0.00 | 0.00 | 0.00 | 52 | 1018.5 |
| 20260831194308 | 75 | 292 | 0.9 | 1.7 | 0.00 | 0.00 | 0.00 | 53 | 1018.5 |
| 20260831193806 | 76 | 172 | 2.6 | 5.2 | 0.00 | 0.00 | 0.00 | 51 | 1018.7 |
| 20260831193302 | 76 | 227 | 2.6 | 3.5 | 0.00 | 0.00 | 0.00 | 50 | 1018.7 |
| 20260831192756 | 75 | 272 | 2.6 | 2.6 | 0.00 | 0.00 | 0.00 | 50 | 1018.6 |
| 20260831192252 | 76 | 177 | 1.7 | 2.6 | 0.00 | 0.00 | 0.00 | 50 | 1018.5 |
| 20260831191747 | 77 | 270 | 0.0 | 0.0 | 0.00 | 0.00 | 0.00 | 50 | 1018.7 |
| 20260831191244 | 79 | 292 | 0.0 | 0.0 | 0.00 | 0.00 | 0.00 | 42 | 1018.5 |
| 20260831190738 | 77 | 207 | 1.7 | 1.7 | 0.00 | 0.00 | 0.00 | 42 | 1018.5 |
| 20260831190233 | 78 | 84 | 1.7 | 2.6 | 0.00 | 0.00 | 0.00 | 42 | 1018.5 |
| 20260831185733 | 79 | 70 | 0.9 | 0.9 | 0.00 | 0.00 | 0.00 | 41 | 1018.6 |
| 20260831185229 | 79 | 256 | 0.0 | 0.0 | 0.00 | 0.00 | 0.00 | 39 | 1018.8 |
| 20260831184727 | 78 | 292 | 0.9 | 1.7 | 0.00 | 0.00 | 0.00 | 40 | 1018.7 |
| 20260831184224 | 77 | 256 | 1.7 | 2.6 | 0.00 | 0.00 | 0.00 | 41 | 1018.7 |
| 20260831183723 | 77 | 268 | 1.7 | 2.6 | 0.00 | 0.00 | 0.00 | 39 | 1018.9 |
| 20260831183218 | 78 | 325 | 2.6 | 2.6 | 0.00 | 0.00 | 0.00 | 38 | 1019.0 |
| 20260831182717 | 77 | 325 | 0.0 | 0.9 | 0.00 | 0.00 | 0.00 | 39 | 1018.8 |
| 20260831182213 | 77 | 203 | 0.9 | 0.9 | 0.00 | 0.00 | 0.00 | 38 | 1018.9 |
| 20260831181712 | 78 | 29 | 0.9 | 0.9 | 0.00 | 0.00 | 0.00 | 37 | 1019.0 |
| 20260831181208 | 77 | 299 | 0.9 | 1.7 | 0.00 | 0.00 | 0.00 | 39 | 1018.9 |
| 20260831180703 | 77 | 259 | 0.0 | 0.0 | 0.00 | 0.00 | 0.00 | 46 | 1019.1 |
| 20260831180158 | 76 | 47 | 0.9 | 1.7 | 0.00 | 0.00 | 0.00 | 44 | 1019.1 |
| 20260831175657 | 76 | 189 | 0.9 | 0.9 | 0.00 | 0.00 | 0.00 | 44 | 1019.0 |
| 20260831175154 | 76 | 254 | 0.9 | 0.9 | 0.00 | 0.00 | 0.00 | 43 | 1019.2 |
| 20260831174654 | 77 | 302 | 0.9 | 1.7 | 0.00 | 0.00 | 0.00 | 46 | 1019.4 |
| 20260831174149 | 76 | 316 | 0.9 | 0.9 | 0.00 | 0.00 | 0.00 | 44 | 1019.3 |
| 20260831173648 | 76 | 338 | 1.7 | 1.7 | 0.00 | 0.00 | 0.00 | 45 | 1019.4 |
| 20260831173144 | 75 | 301 | 0.9 | 0.9 | 0.00 | 0.00 | 0.00 | 51 | 1019.4 |
| 20260831172643 | 75 | 30 | 1.7 | 2.6 | 0.00 | 0.00 | 0.00 | 46 | 1019.3 |
| 20260831172138 | 75 | 45 | 2.6 | 2.6 | 0.00 | 0.00 | 0.00 | 45 | 1019.4 |
| 20260831171633 | 76 | 341 | 2.6 | 2.6 | 0.00 | 0.00 | 0.00 | 49 | 1019.5 |
| 20260831171131 | 76 | 59 | 1.7 | 2.6 | 0.00 | 0.00 | 0.00 | 46 | 1019.5 |
| 20260831170627 | 76 | 294 | 1.7 | 2.6 | 0.00 | 0.00 | 0.00 | 46 | 1019.7 |
| 20260831170124 | 75 | 304 | 0.0 | 0.0 | 0.00 | 0.00 | 0.00 | 50 | 1019.6 |
| 20260831165619 | 75 | 254 | 0.9 | 0.9 | 0.00 | 0.00 | 0.00 | 48 | 1019.8 |
| 20260831165116 | 74 | 232 | 1.7 | 1.7 | 0.00 | 0.00 | 0.00 | 46 | 1019.9 |
| 20260831164611 | 75 | 272 | 0.0 | 0.0 | 0.00 | 0.00 | 0.00 | 46 | 1019.7 |
| 20260831164107 | 75 | 264 | 0.0 | 0.9 | 0.00 | 0.00 | 0.00 | 47 | 1019.8 |
| 20260831163601 | 74 | 237 | 1.7 | 1.7 | 0.00 | 0.00 | 0.00 | 47 | 1020.0 |
| 20260831163057 | 74 | 298 | 1.7 | 2.6 | 0.00 | 0.00 | 0.00 | 46 | 1020.1 |
| 20260831162556 | 73 | 25 | 0.0 | 0.9 | 0.00 | 0.00 | 0.00 | 47 | 1020.1 |
| 20260831162054 | 73 | 229 | 1.7 | 1.7 | 0.00 | 0.00 | 0.00 | 47 | 1020.2 |
| 20260831161550 | 74 | 263 | 2.6 | 3.5 | 0.00 | 0.00 | 0.00 | 47 | 1020.2 |
| 20260831161046 | 73 | 300 | 0.0 | 0.9 | 0.00 | 0.00 | 0.00 | 52 | 1020.0 |
| 20260831160539 | 74 | 304 | 2.6 | 3.5 | 0.00 | 0.00 | 0.00 | 46 | 1020.0 |
| 20260831160035 | 73 | 5 | 0.9 | 1.7 | 0.00 | 0.00 | 0.00 | 50 | 1020.1 |
| 20260831155530 | 73 | 233 | 1.7 | 2.6 | 0.00 | 0.00 | 0.00 | 50 | 1020.1 |
| 20260831155024 | 72 | 323 | 1.7 | 1.7 | 0.00 | 0.00 | 0.00 | 52 | 1020.2 |
| 20260831154521 | 71 | 269 | 1.7 | 2.6 | 0.00 | 0.00 | 0.00 | 54 | 1020.2 |
| 20260831154020 | 72 | 42 | 1.7 | 2.6 | 0.00 | 0.00 | 0.00 | 51 | 1020.4 |
| 20260831153521 | 71 | 87 | 2.6 | 2.6 | 0.00 | 0.00 | 0.00 | 52 | 1020.3 |
| 20260831153018 | 72 | 49 | 2.6 | 2.6 | 0.00 | 0.00 | 0.00 | 50 | 1020.5 |
| 20260831152513 | 71 | 348 | 1.7 | 2.6 | 0.00 | 0.00 | 0.00 | 55 | 1020.5 |
| 20260831152008 | 71 | 349 | 2.6 | 5.2 | 0.00 | 0.00 | 0.00 | 54 | 1020.4 |
| 20260831151508 | 70 | 334 | 0.0 | 0.0 | 0.00 | 0.00 | 0.00 | 53 | 1020.6 |
| 20260831151002 | 71 | 345 | 0.9 | 1.7 | 0.00 | 0.00 | 0.00 | 54 | 1020.7 |
| 20260831150458 | 70 | 351 | 1.7 | 1.7 | 0.00 | 0.00 | 0.00 | 56 | 1020.8 |
| 20260831145958 | 71 | 79 | 1.7 | 2.6 | 0.00 | 0.00 | 0.00 | 52 | 1020.7 |
| 20260831145453 | 71 | 353 | 0.9 | 0.9 | 0.00 | 0.00 | 0.00 | 54 | 1020.6 |
| 20260831144949 | 71 | 328 | 0.9 | 1.7 | 0.00 | 0.00 | 0.00 | 61 | 1020.8 |
| 20260831144444 | 70 | 267 | 1.7 | 1.7 | 0.00 | 0.00 | 0.00 | 58 | 1021.0 |
| 20260831143940 | 70 | 331 | 0.0 | 0.0 | 0.00 | 0.00 | 0.00 | 58 | 1021.0 |
| 20260831143434 | 69 | 216 | 1.7 | 1.7 | 0.00 | 0.00 | 0.00 | 58 | 1020.9 |
| 20260831142930 | 69 | 256 | 0.0 | 0.9 | 0.00 | 0.00 | 0.00 | 60 | 1021.0 |
| 20260831142426 | 69 | 57 | 2.6 | 3.5 | 0.00 | 0.00 | 0.00 | 57 | 1020.8 |
| 20260831141920 | 69 | 282 | 1.7 | 1.7 | 0.00 | 0.00 | 0.00 | 57 | 1020.8 |
| 20260831141414 | 68 | 71 | 1.7 | 2.6 | 0.00 | 0.00 | 0.00 | 55 | 1020.7 |
| 20260831140909 | 68 | 22 | 1.7 | 2.6 | 0.00 | 0.00 | 0.00 | 57 | 1021.0 |
| 20260831140404 | 68 | 334 | 0.9 | 1.7 | 0.00 | 0.00 | 0.00 | 58 | 1021.0 |
| 20260831135902 | 68 | 245 | 2.6 | 2.6 | 0.00 | 0.00 | 0.00 | 57 | 1020.9 |
| 20260831135356 | 68 | 322 | 1.7 | 2.6 | 0.00 | 0.00 | 0.00 | 60 | 1021.1 |
| 20260831134852 | 68 | 64 | 3.5 | 3.5 | 0.00 | 0.00 | 0.00 | 58 | 1021.0 |
| 20260831134349 | 68 | 7 | 0.9 | 0.9 | 0.00 | 0.00 | 0.00 | 60 | 1021.2 |
| 20260831133848 | 68 | 41 | 2.6 | 2.6 | 0.00 | 0.00 | 0.00 | 59 | 1020.9 |
| 20260831133342 | 67 | 352 | 1.7 | 1.7 | 0.00 | 0.00 | 0.00 | 64 | 1020.8 |
| 20260831132838 | 68 | 266 | 1.7 | 2.6 | 0.00 | 0.00 | 0.00 | 62 | 1020.9 |
| 20260831132332 | 67 | 30 | 0.0 | 0.9 | 0.00 | 0.00 | 0.00 | 64 | 1020.6 |
| 20260831131827 | 67 | 276 | 1.7 | 2.6 | 0.00 | 0.00 | 0.00 | 63 | 1020.7 |
| 20260831131323 | 67 | 290 | 0.0 | 0.9 | 0.00 | 0.00 | 0.00 | 66 | 1020.7 |
| 20260831130818 | 66 | 292 | 1.7 | 2.6 | 0.00 | 0.00 | 0.00 | 68 | 1020.6 |
| 20260831130313 | 66 | 10 | 0.9 | 1.7 | 0.00 | 0.00 | 0.00 | 69 | 1020.5 |
| 20260831125812 | 66 | 27 | 0.9 | 1.7 | 0.00 | 0.00 | 0.00 | 69 | 1020.7 |
| 20260831125308 | 66 | 305 | 0.0 | 0.9 | 0.00 | 0.00 | 0.00 | 71 | 1020.8 |
| 20260831124808 | 65 | 25 | 1.7 | 1.7 | 0.00 | 0.00 | 0.00 | 72 | 1020.6 |
| 20260831124304 | 65 | 63 | 1.7 | 1.7 | 0.00 | 0.00 | 0.00 | 72 | 1020.4 |
| 20260831123804 | 65 | 52 | 0.9 | 1.7 | 0.00 | 0.00 | 0.00 | 74 | 1020.5 |
| 20260831123302 | 65 | 27 | 0.9 | 1.7 | 0.00 | 0.00 | 0.00 | 74 | 1020.4 |
| 20260831122757 | 64 | 3 | 2.6 | 3.5 | 0.00 | 0.00 | 0.00 | 76 | 1020.4 |
| 20260831122253 | 64 | 316 | 0.9 | 1.7 | 0.00 | 0.00 | 0.00 | 79 | 1020.2 |
| 20260831121753 | 64 | 40 | 0.9 | 1.7 | 0.00 | 0.00 | 0.00 | 77 | 1020.5 |
| 20260831121249 | 63 | 343 | 0.9 | 0.9 | 0.00 | 0.00 | 0.00 | 80 | 1020.3 |
| 20260831120744 | 62 | 345 | 0.9 | 1.7 | 0.00 | 0.00 | 0.00 | 83 | 1020.3 |
| 20260831120239 | 63 | 340 | 0.9 | 0.9 | 0.00 | 0.00 | 0.00 | 83 | 1020.4 |
| 20260831115734 | 62 | 317 | 0.0 | 0.0 | 0.00 | 0.00 | 0.00 | 84 | 1020.3 |
| 20260831115230 | 60 | 332 | 0.0 | 0.0 | 0.00 | 0.00 | 0.00 | 91 | 1020.6 |
| 20260831114730 | 59 | 296 | 0.0 | 0.0 | 0.00 | 0.00 | 0.00 | 91 | 1020.5 |
| 20260831114229 | 58 | 333 | 0.0 | 0.0 | 0.00 | 0.00 | 0.00 | 93 | 1020.6 |
| 20260831113725 | 56 | 329 | 0.0 | 0.0 | 0.00 | 0.00 | 0.00 | 97 | 1020.4 |
| 20260831113219 | 54 | 327 | 0.0 | 0.0 | 0.00 | 0.00 | 0.00 | 99 | 1020.3 |
| 20260831112718 | 54 | 303 | 0.0 | 0.0 | 0.00 | 0.00 | 0.00 | 99 | 1020.5 |
| 20260831112214 | 53 | 309 | 0.0 | 0.0 | 0.00 | 0.00 | 0.00 | 99 | 1020.5 |
| 20260831111709 | 53 | 331 | 0.0 | 0.0 | 0.00 | 0.00 | 0.00 | 99 | 1020.2 |
| 20260831111206 | 53 | 324 | 0.0 | 0.0 | 0.00 | 0.00 | 0.00 | 99 | 1020.2 |
| 20260831110701 | 52 | 321 | 0.0 | 0.0 | 0.00 | 0.00 | 0.00 | 99 | 1020.4 |
| 20260831110155 | 52 | 313 | 0.0 | 0.0 | 0.00 | 0.00 | 0.00 | 99 | 1020.2 |
| 20260831105649 | 51 | 318 | 0.0 | 0.0 | 0.00 | 0.00 | 0.00 | 99 | 1020.2 |
| 20260831105144 | 51 | 335 | 0.0 | 0.0 | 0.00 | 0.00 | 0.00 | 99 | 1020.0 |
| 20260831104639 | 51 | 318 | 0.0 | 0.0 | 0.00 | 0.00 | 0.00 | 99 | 1020.1 |
| 20260831104136 | 51 | 305 | 0.0 | 0.0 | 0.00 | 0.00 | 0.00 | 99 | 1019.7 |
| 20260831103631 | 50 | 306 | 0.0 | 0.0 | 0.00 | 0.00 | 0.00 | 99 | 1019.8 |
| 20260831103127 | 51 | 303 | 0.0 | 0.0 | 0.00 | 0.00 | 0.00 | 99 | 1019.8 |
| 20260831102627 | 51 | 347 | 0.0 | 0.0 | 0.00 | 0.00 | 0.00 | 99 | 1019.6 |
| 20260831102121 | 51 | 342 | 0.0 | 0.0 | 0.00 | 0.00 | 0.00 | 99 | 1019.6 |
| 20260831101621 | 51 | 315 | 0.0 | 0.0 | 0.00 | 0.00 | 0.00 | 99 | 1019.7 |
| 20260831101118 | 52 | 347 | 0.0 | 0.9 | 0.00 | 0.00 | 0.00 | 99 | 1019.7 |
| 20260831100613 | 52 | 323 | 0.0 | 0.0 | 0.00 | 0.00 | 0.00 | 99 | 1019.6 |
| 20260831100109 | 53 | 310 | 0.0 | 0.0 | 0.00 | 0.00 | 0.00 | 98 | 1019.5 |
| 20260831095607 | 54 | 312 | 0.0 | 0.0 | 0.00 | 0.00 | 0.00 | 98 | 1019.6 |
| 20260831095102 | 54 | 315 | 0.0 | 0.0 | 0.00 | 0.00 | 0.00 | 97 | 1019.5 |
| 20260831094558 | 55 | 317 | 0.0 | 0.0 | 0.00 | 0.00 | 0.00 | 97 | 1019.4 |
| 20260831094054 | 55 | 318 | 0.0 | 0.9 | 0.00 | 0.00 | 0.00 | 97 | 1019.4 |
| 20260831093549 | 55 | 298 | 0.0 | 0.9 | 0.00 | 0.00 | 0.00 | 97 | 1019.4 |
| 20260831093045 | 55 | 244 | 0.9 | 0.9 | 0.00 | 0.00 | 0.00 | 97 | 1019.3 |
| 20260831092541 | 55 | 258 | 0.9 | 0.9 | 0.00 | 0.00 | 0.00 | 98 | 1019.2 |
| 20260831092036 | 54 | 277 | 0.9 | 1.7 | 0.00 | 0.00 | 0.00 | 99 | 1019.2 |
| 20260831091531 | 54 | 308 | 0.0 | 0.0 | 0.00 | 0.00 | 0.00 | 99 | 1019.2 |
| 20260831091026 | 53 | 313 | 0.0 | 0.0 | 0.00 | 0.00 | 0.00 | 99 | 1019.2 |
| 20260831090521 | 52 | 305 | 0.0 | 0.0 | 0.00 | 0.00 | 0.00 | 99 | 1019.1 |
| 20260831090018 | 52 | 310 | 0.0 | 0.0 | 0.00 | 0.00 | 0.00 | 99 | 1019.0 |
| 20260831085512 | 53 | 308 | 0.0 | 0.0 | 0.00 | 0.00 | 0.00 | 99 | 1019.0 |
| 20260831085007 | 53 | 327 | 0.0 | 0.0 | 0.00 | 0.00 | 0.00 | 99 | 1019.0 |
| 20260831084503 | 53 | 327 | 0.0 | 0.0 | 0.00 | 0.00 | 0.00 | 99 | 1018.9 |
| 20260831083959 | 53 | 330 | 0.0 | 0.0 | 0.00 | 0.00 | 0.00 | 99 | 1019.0 |
| 20260831083454 | 54 | 337 | 0.0 | 0.0 | 0.00 | 0.00 | 0.00 | 99 | 1018.8 |
| 20260831082953 | 54 | 344 | 0.0 | 0.0 | 0.00 | 0.00 | 0.00 | 98 | 1018.8 |
| 20260831082448 | 55 | 332 | 0.0 | 0.0 | 0.00 | 0.00 | 0.00 | 97 | 1018.8 |
| 20260831081943 | 55 | 349 | 0.9 | 0.9 | 0.00 | 0.00 | 0.00 | 97 | 1018.8 |
| 20260831081439 | 56 | 3 | 0.0 | 0.0 | 0.00 | 0.00 | 0.00 | 95 | 1018.6 |
| 20260831080934 | 57 | 310 | 0.0 | 0.0 | 0.00 | 0.00 | 0.00 | 94 | 1018.6 |
| 20260831080429 | 57 | 307 | 0.0 | 0.0 | 0.00 | 0.00 | 0.00 | 94 | 1018.6 |
| 20260831075925 | 57 | 304 | 0.0 | 0.0 | 0.00 | 0.00 | 0.00 | 95 | 1018.4 |
| 20260831075420 | 57 | 308 | 0.0 | 0.0 | 0.00 | 0.00 | 0.00 | 95 | 1018.2 |
| 20260831074916 | 57 | 268 | 0.0 | 0.0 | 0.00 | 0.00 | 0.00 | 95 | 1018.5 |
| 20260831074415 | 57 | 307 | 0.0 | 0.0 | 0.00 | 0.00 | 0.00 | 95 | 1018.4 |
| 20260831073909 | 57 | 11 | 0.0 | 0.0 | 0.00 | 0.00 | 0.00 | 95 | 1018.5 |
| 20260831073409 | 57 | 305 | 0.0 | 0.0 | 0.00 | 0.00 | 0.00 | 95 | 1018.3 |
| 20260831072903 | 57 | 302 | 0.0 | 0.0 | 0.00 | 0.00 | 0.00 | 95 | 1018.4 |
| 20260831072359 | 57 | 322 | 0.0 | 0.9 | 0.00 | 0.00 | 0.00 | 95 | 1018.4 |
| 20260831071855 | 57 | 291 | 0.0 | 0.9 | 0.00 | 0.00 | 0.00 | 94 | 1018.3 |
| 20260831071354 | 58 | 0 | 0.0 | 0.0 | 0.00 | 0.00 | 0.00 | 94 | 1018.4 |
| 20260831070849 | 58 | 303 | 0.0 | 0.0 | 0.00 | 0.00 | 0.00 | 93 | 1018.4 |
| 20260831070348 | 59 | 338 | 0.9 | 0.9 | 0.00 | 0.00 | 0.00 | 93 | 1018.4 |
| 20260831065848 | 59 | 305 | 0.0 | 0.0 | 0.00 | 0.00 | 0.00 | 93 | 1018.3 |
| 20260831065345 | 59 | 303 | 0.0 | 0.0 | 0.00 | 0.00 | 0.00 | 94 | 1018.2 |
| 20260831064841 | 58 | 282 | 0.9 | 1.7 | 0.00 | 0.00 | 0.00 | 94 | 1018.2 |
| 20260831064336 | 58 | 12 | 0.0 | 0.0 | 0.00 | 0.00 | 0.00 | 94 | 1018.4 |
| 20260831063832 | 59 | 313 | 0.0 | 0.0 | 0.00 | 0.00 | 0.00 | 94 | 1018.2 |
| 20260831063327 | 59 | 300 | 0.0 | 0.0 | 0.00 | 0.00 | 0.00 | 93 | 1018.3 |
| 20260831062827 | 59 | 294 | 0.9 | 0.9 | 0.00 | 0.00 | 0.00 | 93 | 1018.2 |
| 20260831062322 | 59 | 292 | 0.0 | 0.0 | 0.00 | 0.00 | 0.00 | 94 | 1018.1 |
| 20260831061820 | 59 | 285 | 0.9 | 1.7 | 0.00 | 0.00 | 0.00 | 95 | 1018.1 |
| 20260831061315 | 58 | 299 | 0.0 | 0.0 | 0.00 | 0.00 | 0.00 | 96 | 1018.2 |
| 20260831060811 | 58 | 307 | 0.0 | 0.0 | 0.00 | 0.00 | 0.00 | 97 | 1018.0 |
| 20260831060310 | 58 | 320 | 0.9 | 1.7 | 0.00 | 0.00 | 0.00 | 98 | 1017.9 |
| 20260831055810 | 58 | 259 | 0.9 | 0.9 | 0.00 | 0.00 | 0.00 | 98 | 1017.8 |
| 20260831055306 | 58 | 291 | 0.0 | 0.9 | 0.00 | 0.00 | 0.00 | 99 | 1017.8 |
| 20260831054801 | 57 | 302 | 0.0 | 0.9 | 0.00 | 0.00 | 0.00 | 99 | 1017.8 |
| 20260831054255 | 57 | 338 | 0.0 | 0.0 | 0.00 | 0.00 | 0.00 | 99 | 1017.9 |
| 20260831053754 | 57 | 301 | 0.0 | 0.0 | 0.00 | 0.00 | 0.00 | 99 | 1017.5 |
| 20260831053253 | 57 | 283 | 0.0 | 0.0 | 0.00 | 0.00 | 0.00 | 99 | 1017.8 |
| 20260831052748 | 57 | 298 | 0.0 | 0.0 | 0.00 | 0.00 | 0.00 | 99 | 1017.6 |
| 20260831052247 | 56 | 312 | 0.0 | 0.0 | 0.00 | 0.00 | 0.00 | 99 | 1017.7 |
| 20260831051745 | 57 | 291 | 0.0 | 0.0 | 0.00 | 0.00 | 0.00 | 99 | 1017.7 |
| 20260831051244 | 57 | 291 | 0.0 | 0.0 | 0.00 | 0.00 | 0.00 | 99 | 1017.5 |
| 20260831050739 | 56 | 310 | 0.0 | 0.0 | 0.00 | 0.00 | 0.00 | 99 | 1017.5 |
| 20260831050238 | 57 | 312 | 0.0 | 0.0 | 0.00 | 0.00 | 0.00 | 99 | 1017.4 |
| 20260831045732 | 57 | 307 | 0.0 | 0.0 | 0.00 | 0.00 | 0.00 | 99 | 1017.4 |
| 20260831045227 | 58 | 313 | 0.0 | 0.0 | 0.00 | 0.00 | 0.00 | 99 | 1017.4 |
| 20260831044722 | 58 | 302 | 0.0 | 0.0 | 0.00 | 0.00 | 0.00 | 98 | 1017.3 |
| 20260831044217 | 58 | 304 | 0.0 | 0.0 | 0.00 | 0.00 | 0.00 | 97 | 1017.3 |
| 20260831043713 | 59 | 312 | 0.0 | 0.0 | 0.00 | 0.00 | 0.00 | 96 | 1017.2 |
| 20260831043208 | 59 | 318 | 0.0 | 0.0 | 0.00 | 0.00 | 0.00 | 96 | 1017.2 |
| 20260831042707 | 59 | 292 | 0.0 | 0.0 | 0.00 | 0.00 | 0.00 | 96 | 1017.2 |
| 20260831042202 | 60 | 310 | 0.0 | 0.0 | 0.00 | 0.00 | 0.00 | 95 | 1017.3 |
| 20260831041657 | 60 | 310 | 0.0 | 0.0 | 0.00 | 0.00 | 0.00 | 94 | 1017.3 |
| 20260831041156 | 60 | 279 | 0.0 | 0.0 | 0.00 | 0.00 | 0.00 | 94 | 1017.2 |
| 20260831040652 | 61 | 298 | 0.0 | 0.0 | 0.00 | 0.00 | 0.00 | 94 | 1017.3 |
| 20260831040150 | 61 | 287 | 0.0 | 0.0 | 0.00 | 0.00 | 0.00 | 93 | 1017.3 |
| 20260831035649 | 62 | 265 | 0.0 | 0.0 | 0.00 | 0.00 | 0.00 | 92 | 1017.3 |
| 20260831035144 | 62 | 333 | 2.6 | 2.6 | 0.00 | 0.00 | 0.00 | 92 | 1017.2 |
| 20260831034642 | 62 | 299 | 0.9 | 0.9 | 0.00 | 0.00 | 0.00 | 91 | 1017.3 |
| 20260831034138 | 62 | 290 | 0.0 | 0.9 | 0.00 | 0.00 | 0.00 | 90 | 1017.5 |
| 20260831033634 | 63 | 297 | 0.9 | 0.9 | 0.00 | 0.00 | 0.00 | 89 | 1017.2 |
| 20260831033129 | 63 | 279 | 0.0 | 0.0 | 0.00 | 0.00 | 0.00 | 89 | 1017.1 |
| 20260831032629 | 63 | 313 | 0.0 | 0.0 | 0.00 | 0.00 | 0.00 | 89 | 1017.1 |
| 20260831032124 | 63 | 300 | 0.0 | 0.0 | 0.00 | 0.00 | 0.00 | 88 | 1017.0 |
| 20260831031619 | 63 | 308 | 0.0 | 0.0 | 0.00 | 0.00 | 0.00 | 88 | 1016.9 |
| 20260831031118 | 63 | 299 | 0.0 | 0.0 | 0.00 | 0.00 | 0.00 | 87 | 1017.0 |
| 20260831030617 | 63 | 298 | 0.0 | 0.0 | 0.00 | 0.00 | 0.00 | 87 | 1017.3 |
| 20260831030116 | 63 | 316 | 0.0 | 0.0 | 0.00 | 0.00 | 0.00 | 87 | 1017.4 |
| 20260831025615 | 64 | 307 | 0.0 | 0.0 | 0.00 | 0.00 | 0.00 | 86 | 1017.2 |
| 20260831025110 | 64 | 290 | 0.0 | 0.0 | 0.00 | 0.00 | 0.00 | 86 | 1017.3 |
| 20260831024606 | 64 | 311 | 0.9 | 1.7 | 0.00 | 0.00 | 0.00 | 87 | 1017.4 |
| 20260831024105 | 64 | 289 | 0.9 | 0.9 | 0.00 | 0.00 | 0.00 | 86 | 1017.5 |
| 20260831023603 | 64 | 356 | 0.9 | 1.7 | 0.00 | 0.00 | 0.00 | 85 | 1017.7 |
| 20260831023102 | 64 | 309 | 1.7 | 2.6 | 0.00 | 0.00 | 0.00 | 85 | 1017.6 |
| 20260831022557 | 64 | 356 | 1.7 | 2.6 | 0.00 | 0.00 | 0.00 | 84 | 1017.5 |
| 20260831022052 | 65 | 65 | 3.5 | 5.2 | 0.00 | 0.00 | 0.00 | 83 | 1017.4 |
| 20260831021551 | 66 | 38 | 2.6 | 3.5 | 0.00 | 0.00 | 0.00 | 81 | 1017.7 |
| 20260831021047 | 66 | 8 | 0.9 | 0.9 | 0.00 | 0.00 | 0.00 | 79 | 1017.3 |
| 20260831020542 | 67 | 278 | 1.7 | 2.6 | 0.00 | 0.00 | 0.00 | 76 | 1017.1 |
| 20260831020037 | 68 | 305 | 6.1 | 7.8 | 0.00 | 0.00 | 0.00 | 75 | 1017.2 |
| 20260831015533 | 68 | 23 | 3.5 | 6.1 | 0.00 | 0.00 | 0.00 | 75 | 1016.9 |
| 20260831015027 | 68 | 288 | 0.9 | 1.7 | 0.00 | 0.00 | 0.00 | 78 | 1016.9 |
| 20260831014522 | 65 | 354 | 0.9 | 0.9 | 0.00 | 0.00 | 0.00 | 90 | 1016.4 |